Regional Weather Roundup
Issued by NWS Charleston, SC

Current Version | Previous Version | Text Only | Print | Product List | Glossary Off
Versions: 1 2 3 4 5 6 7 8 9 10 11 12 13 14 15 16 17 18 19 20 21 22 23 24 25 26 27 28 29 30 31 32 33 34 35 36 37 38 39 40 41 42 43 44 45 46 47 48 49 50

000
ASUS42 KCHS 251327
RWRCHS

Regional Weather Roundup
National Weather Service Charleston SC
800 AM EST SUN FEB 25 2018

NOTE: "fair" indicates few or no clouds below 12,000 feet with no
significant weather and/or obstructions to visibility.

Not all stations are quality controlled. Use data with caution,
especially dewpoint observations.

SCZ027-030-031-034>040-042>050-251400-
...Southeast South Carolina...

CITY           SKY/WX    TMP DP  RH WIND       PRES   REMARKS
N Charleston   FAIR      69  65  86 SW9       30.13R
Waterfront Prk   N/A     66  65  96 SW8       29.98S
Mount Pleasant FAIR      70  64  83 SW9       30.14R
Johns Island   FAIR      68  64  88 SW10      30.14S
Pinopolis        N/A     66  64  94 S7        30.03R
Moncks Corner  FAIR      66  63  88 SW7       30.13R
Summerville    FAIR      68  63  83 S7        30.14R
Beaufort MCAS  FAIR      68  66  93 S6        30.14R
Beaufort Arpt  FAIR      68  63  83 S6        30.14S FOG
Hilton Head Is MOSUNNY   66  63  88 S9        30.15S
Walterboro     FAIR      68  64  88 SW7       30.14S
Allendale      FAIR      66  64  94 SW6       30.12R

...Southern Midlands and Pee Dee...

CITY           SKY/WX    TMP DP  RH WIND       PRES   REMARKS
Georgetown     FAIR      68  68 100 SW10      30.14S
Kingstree      FAIR      66  64  94 S3        30.12R
Orangeburg     FAIR      64  62  93 SW12      30.12R
Barnwell         N/A     68  66  94 S7        30.12R
Aiken          PTSUNNY   63  63 100 SW8       30.14R
Manning        FAIR      66  55  68 MISG      30.12R
Columbia       FAIR      65  63  93 SW6       30.09R
Sumter         FAIR      65  62  91 S9        30.07S
Florence       CLOUDY    65  64  97 S9        30.10S
Myrtle Beach   PTSUNNY   68  64  87 S8        30.14R
N Myrtle Beach PTSUNNY   65  64  97 SW13      30.12S

$$

GAZ063-065-086>088-099>101-113>116-118-119-134>141-150-251400-
...Southeast Georgia...

CITY           SKY/WX    TMP DP  RH WIND       PRES   REMARKS
Savannah Arpt  FAIR      66  65  96 S6        30.14S
Hunter AAF     FAIR      68  64  89 S6        30.12R
Fort Stewart   FAIR      64  63  98 S3        30.13R
Statesboro     PTSUNNY   67  63  85 SW6       30.14R
Sylvania       FAIR      66  65  97 SW5       30.14R
Claxton        PTSUNNY   67  65  93 S6        30.15R FOG

...CSRA, Central and far Southeast Georgia...

CITY           SKY/WX    TMP DP  RH WIND       PRES   REMARKS
Thomson        CLOUDY    63  60  90 W6        30.16R
Augusta-Bush   FAIR      64  62  93 SW8       30.10R
Augusta-Daniel PTSUNNY   64  61  90 SW9       30.12R
Swainsboro     FOG       63  63 100 SW6       30.15R VSB 1
Vidalia        CLOUDY    64  64 100 SW8       30.16R FOG
Eastman        CLOUDY    66  59  78 S6        30.16R HAZE
Hazlehurst     CLOUDY    66  66 100 SW7       30.15R FOG
Alma           CLOUDY    67  64  90 SW3       30.15R
Waycross       CLOUDY    67  64  90 SW6       30.16S
Jesup          FAIR      66  63  88 CALM      30.17R
Baxley         CLOUDY    64  64 100 SW6       30.16R
Brunswick      FAIR      70  63  78 S5        30.16S
Saint Simons   FAIR      69  66  90 S5        30.16R

$$

SCZ027-028-034-036>038-045-046-048>050-GAZ119-141-251400-
...Lake and Supplemental Coastal Observations...

STATION/POSITION TIME  TEMP    WIND        PRES    WAVE   SWELL
                       AIR SEA DIR/SP/G            HT/PER HT/PER/DIR
                 (UTC) (F)     (DEG/KT/KT) (MB)    (FT/S) (FT/S/D)
Winyah Bay       1245   68     230/  9     1020.0S
Lake Murray      1220   63     210/  7/ 10 1017.9
ACE Basin NERRS  1245   66        CALM     1020.0S
Fort Pulaski     1300   67 63  210/  7/  9 1021.1
Sapelo Island    1300   67     190/  5     1021.0

$$

ANZ835-935-AMZ111-154-330-350-352-354-370-450-454-472-251400-
...C-MAN and Buoy Observations...

STATION/POSITION TIME  TEMP    WIND        PRES    WAVE   SWELL
                       AIR SEA DIR/SP/G            HT/PER HT/PER/DIR
                 (UTC) (F)     (DEG/KT/KT) (MB)    (FT/S) (FT/S/D)
Buoy 41004       1300   71     220/ 14/ 17 1021.5
Buoy 41008       1250   63 60  180/ 12/ 12 1020.9R   3/ 9   2/100/ 9
Folly Beach CMAN 1300   65     220/  9/ 10 1021.1R
Capers Nearshore 1308   63 63  230/ 12/ 17 1020.2R
Fripp Nearshore  1308   62 63  220/ 10/ 16 1020.7R


STATION/POSITION TIME  TEMP    WIND        PRES    WAVE   SWELL
                       AIR SEA DIR/SP/G            HT/PER HT/PER/DIR
                 (UTC) (F)     (DEG/KT/KT) (MB)    (FT/S) (FT/S/D)
5E St. Marys GA  1300      64                N/A     3/ 9   2/110/11
Frying Pan Buoy  1300          220/ 14/ 17 1021.0
Buoy 41025       1300   72     240/ 19/ 25   N/A
Cape Lookout NC  1200          210/ 10/ 12 1020.5R
Buoy 41002       1250   72 72  190/ 16/ 17 1023.3F   6/ 9   5/120/ 9
Buoy 41010       NOT AVBL
St Augustine FL  1300   65 60  180/  6/  6 1022.3R


$$



USA.gov is the U.S. government's official web portal to all federal, state and local government web resources and services.